{"data":{"norad_id":63866,"epoch":"2026-09-20T22:51:57.766752Z","epoch_age_seconds":107887,"freshness":"FRESH","line1":"1 63866U 25094C   26263.95275193  .00008776  00000+0  30941-3 0  9996","line2":"2 63866  69.9998  99.6618 0003041 269.5450  90.5377 15.29577575 76512","mean_motion":15.29577575,"eccentricity":0.0003041,"inclination_deg":69.9998,"raan_deg":99.6618,"arg_perigee_deg":269.545,"mean_anomaly_deg":90.5377,"bstar":0.00030941,"rev_number":7651,"period_min":94.14363962547,"perigee_km":474.98947874715,"apogee_km":479.15881816764,"semimajor_km":6855.2111484574,"source":"CELESTRAK","updated_at":"2026-09-21T09:00:35.137399Z"}}